Simultaneous Nadir Overpasses (SNOs) Predictions

Prediction of SNOs between NOAA-19 and TERRA Satellite Orbit:

Table of predicted SNOs for the next 14.0 days since TLE Epoch: 1/7/2012
Index Date Time (NOAA-19) NOAA-19 Lat,Lon TERRA Lat,Lon Distance(km) Time Diff (sec)
1 01/09/2012 16:18:27 -70.95, 111.70 -70.84, 116.96 191.85 57
2 01/09/2012 17:08:57 68.98, -78.05 68.98, -78.01 1.94 26
3 01/09/2012 17:59:52 -68.84, 89.42 -68.81, 89.42 2.96 58
4 01/09/2012 18:49:56 65.39, -99.29 65.38,-106.67 342.02 36
5 01/11/2012 21:02:54 -69.67, 42.52 -69.55, 44.04 60.29 70
6 01/11/2012 21:53:47 68.93,-149.18 68.94,-149.11 3.42 7
7 01/11/2012 22:44:31 -68.17, 19.09 -68.23, 17.64 60.42 70
8 01/14/2012 00:57:27 71.77, 160.55 71.75, 168.67 282.56 45
9 01/14/2012 01:47:33 -69.01, -27.74 -69.02, -27.73 0.41 57
10 01/14/2012 02:38:37 68.87, 139.69 68.85, 139.70 2.54 39
11 01/14/2012 03:28:58 -66.86, -50.52 -66.90, -54.93 192.35 57
12 01/16/2012 05:41:52 70.43, 91.67 70.34, 95.38 138.63 62
13 01/16/2012 06:32:24 -68.98, -98.91 -68.97, -98.86 2.72 23
14 01/16/2012 07:23:27 68.82, 68.55 68.79, 68.56 2.70 72
15 01/16/2012 08:13:20 -65.26,-120.01 -65.27,-127.62 353.98 34
16 01/18/2012 09:36:35 -73.33,-152.33 -73.33,-138.14 451.56 14
17 01/18/2012 10:26:20 69.22, 22.29 69.17, 22.70 17.09 71
18 01/18/2012 11:17:14 -68.90,-170.01 -68.90,-170.01 0.15 10
19 01/18/2012 12:07:56 67.64, -1.14 67.66, -3.85 114.64 65
20 01/20/2012 14:20:51 -71.55, 140.09 -71.45, 147.33 255.61 49
21 01/20/2012 15:11:06 68.96, -48.56 68.98, -48.61 3.20 44
22 01/20/2012 16:02:04 -68.82, 118.88 -68.83, 118.83 2.06 43




NCC Satellite Simultaneous Nadir Overpasses (SNOs) Prediction Service
